Lexington, NC

9:21 AM EST on February 22, 2017 (GMT -0500)
Davidson County

Weather History for KEXX - July, 2013

Change the Weather History Date:

Saturday, July 6, 2013

  Actual Average (KINT) Record (KINT)
Temperature  
Mean Temperature 76 °F -  
Max Temperature 83 °F 84 °F 99 °F (1990)
Min Temperature 68 °F 67 °F 49 °F (1972)
Cooling Degree Days 10    
Growing Degree Days 26 (Base 50)    
Moisture  
Dew Point 71 °F    
Average Humidity 90    
Maximum Humidity 100    
Minimum Humidity 64    
Precipitation  
Precipitation 0.34 in - - ()
Sea Level Pressure  
Sea Level Pressure 30.22 in    
Wind  
Wind Speed 2 mph (SSE)    
Max Wind Speed 8 mph    
Max Gust Speed 20 mph    
Visibility 8 miles    
Events Rain    
Averages and records for this station are not official NWS values.
T = Trace of Precipitation, MM = Missing Value Source: NWS Daily Summary

Daily Weather History Graph

Daily Weather History Graph

Search for Another Location

Airport or City:

Trip Planner

Search our weather history database for the weather conditions in past years. The results will help you decide how hot, cold, wet, or windy it might be!

Date:

Astronomy

Jul. 06, 2013 Rise Set
Actual Time 6:11 AM EDT 8:40 PM EDT
Civil Twilight 5:41 AM EDT 9:10 PM EDT
Nautical Twilight 5:04 AM EDT 9:47 PM EDT
Astronomical Twilight 4:23 AM EDT 10:27 PM EDT
Moon 4:54 AM EDT (7/6) 7:22 PM EDT (7/6)
Length of Visible Light 15h 28m
Length of Day
14h 29m
Waning Crescent, 2% of the Moon is Illuminated
Jul 6
Waning Crescent
Jul 8
New
Jul 15
First Quarter
Jul 22
Full
Jul 29
Last Quarter

Hourly Weather History & Observations

Time (EDT) Temp. Heat Index Dew Point Humidity Pressure Visibility Wind Dir Wind Speed Gust Speed Precip Events Conditions
12:15 AM 71.6 °F - 71.6 °F 100% 30.25 in 10.0 mi South 3.5 mph - 0.01 in   Scattered Clouds
12:35 AM 71.6 °F - 71.6 °F 100% 30.25 in 10.0 mi South 4.6 mph - 0.01 in   Scattered Clouds
12:55 AM 71.1 °F - 71.1 °F 100% 30.24 in 10.0 mi South 3.5 mph - 0.01 in   Scattered Clouds
1:15 AM 70.7 °F - 70.7 °F 100% 30.23 in 7.0 mi Calm Calm - N/A   Scattered Clouds
1:35 AM 70.3 °F - 70.3 °F 100% 30.24 in 7.0 mi Calm Calm - N/A   Clear
2:15 AM 69.8 °F - 69.8 °F 100% 30.23 in 10.0 mi Calm Calm - N/A   Clear
2:35 AM 69.3 °F - 69.3 °F 100% 30.23 in 10.0 mi Calm Calm - N/A   Clear
2:55 AM 68.9 °F - 68.9 °F 100% 30.22 in 10.0 mi Calm Calm - N/A   Clear
3:15 AM 68.9 °F - 68.9 °F 100% 30.23 in 7.0 mi Calm Calm - N/A   Clear
3:35 AM 68.9 °F - 68.9 °F 100% 30.22 in 7.0 mi Calm Calm - N/A   Clear
3:55 AM 68.5 °F - 68.5 °F 100% 30.22 in 7.0 mi Calm Calm - N/A   Clear
4:15 AM 68.4 °F - 68.4 °F 100% 30.22 in 7.0 mi Calm Calm - N/A   Scattered Clouds
5:15 AM 69.3 °F - 69.3 °F 100% 30.23 in 10.0 mi Calm Calm - N/A   Overcast
5:35 AM 69.1 °F - 69.1 °F 100% 30.23 in 10.0 mi Calm Calm - N/A   Overcast
5:55 AM 69.3 °F - 69.3 °F 100% 30.24 in 10.0 mi Calm Calm - N/A   Overcast
6:15 AM 69.4 °F - 69.4 °F 100% 30.25 in 7.0 mi SSE 3.5 mph - N/A   Overcast
6:35 AM 69.8 °F - 69.8 °F 100% 30.25 in 5.0 mi Calm Calm - N/A   Overcast
6:55 AM 70.2 °F - 70.2 °F 100% 30.25 in 2.0 mi Calm Calm - N/A   Overcast
7:15 AM 70.3 °F - 70.3 °F 100% 30.26 in 1.5 mi Calm Calm - N/A Rain Light Rain
7:35 AM 70.7 °F - 70.7 °F 100% 30.26 in 3.0 mi SSE 3.5 mph - N/A   Overcast
7:55 AM 70.9 °F - 70.9 °F 100% 30.25 in 3.0 mi Calm Calm - N/A   Overcast
8:15 AM 71.8 °F - 71.8 °F 100% 30.26 in 7.0 mi South 4.6 mph - N/A   Mostly Cloudy
8:35 AM 71.8 °F - 71.8 °F 100% 30.27 in 7.0 mi Calm Calm - N/A   Mostly Cloudy
8:55 AM 72.1 °F - 72.1 °F 100% 30.27 in 10.0 mi South 3.5 mph - N/A   Mostly Cloudy
9:15 AM 72.9 °F - 72.9 °F 100% 30.27 in 10.0 mi Calm Calm - N/A   Mostly Cloudy
9:35 AM 74.5 °F - 73.0 °F 95% 30.27 in 10.0 mi South 3.5 mph - N/A   Scattered Clouds
9:55 AM 74.8 °F - 73.2 °F 95% 30.27 in 10.0 mi SSE 3.5 mph - N/A   Scattered Clouds
10:15 AM 75.9 °F - 71.4 °F 86% 30.26 in 10.0 mi Calm Calm - N/A   Scattered Clouds
10:35 AM 74.5 °F - 71.8 °F 91% 30.27 in 10.0 mi Calm Calm - N/A   Scattered Clouds
10:55 AM 76.6 °F - 72.1 °F 86% 30.27 in 10.0 mi Calm Calm - N/A   Clear
11:15 AM 77.2 °F - 71.6 °F 83% 30.27 in 10.0 mi South 3.5 mph - N/A   Scattered Clouds
11:35 AM 78.4 °F - 71.1 °F 78% 30.26 in 10.0 mi South 4.6 mph - N/A   Scattered Clouds
11:55 AM 79.3 °F - 70.5 °F 74% 30.26 in 10.0 mi South 4.6 mph - N/A   Clear
12:15 PM 80.4 °F 83.9 °F 70.5 °F 72% 30.26 in 10.0 mi SSE 8.1 mph - N/A   Clear
12:35 PM 81.0 °F 84.9 °F 71.1 °F 72% 30.25 in 10.0 mi South 5.8 mph - N/A   Clear
12:55 PM 81.3 °F 85.2 °F 70.5 °F 70% 30.24 in 10.0 mi SE 5.8 mph - N/A   Scattered Clouds
1:15 PM 81.3 °F 84.8 °F 69.8 °F 68% 30.23 in 10.0 mi ESE 3.5 mph - N/A   Scattered Clouds
1:35 PM 81.9 °F 85.0 °F 68.7 °F 64% 30.22 in 10.0 mi SSE 5.8 mph - N/A   Clear
1:55 PM 81.3 °F 84.6 °F 69.3 °F 67% 30.22 in 10.0 mi SSE 5.8 mph - N/A   Clear
2:15 PM 82.0 °F 85.5 °F 69.3 °F 65% 30.21 in 10.0 mi SSE 4.6 mph - N/A   Clear
2:35 PM 82.9 °F 87.0 °F 70.0 °F 65% 30.21 in 10.0 mi South 3.5 mph - N/A   Clear
2:55 PM 83.5 °F 88.0 °F 70.5 °F 65% 30.20 in 10.0 mi South 4.6 mph - N/A   Clear
3:15 PM 82.0 °F 85.3 °F 68.9 °F 64% 30.19 in 10.0 mi SSE 3.5 mph - N/A   Clear
3:35 PM 82.8 °F 86.9 °F 70.5 °F 66% 30.19 in 10.0 mi Calm Calm - N/A   Clear
3:55 PM 81.9 °F 86.2 °F 71.1 °F 70% 30.18 in 10.0 mi SSE 4.6 mph - N/A   Clear
4:15 PM 81.1 °F 84.9 °F 70.5 °F 70% 30.17 in 10.0 mi South 3.5 mph - N/A   Clear
4:35 PM 82.2 °F 86.9 °F 71.6 °F 70% 30.16 in 10.0 mi Calm Calm - N/A   Clear
4:55 PM 82.9 °F 87.2 °F 70.5 °F 66% 30.16 in 10.0 mi SSW 3.5 mph - N/A   Scattered Clouds
5:15 PM 82.4 °F 86.7 °F 71.1 °F 68% 30.15 in 10.0 mi Calm Calm - N/A   Scattered Clouds
5:35 PM 83.1 °F 88.6 °F 72.5 °F 70% 30.14 in 10.0 mi Calm Calm - N/A   Clear
5:55 PM 82.2 °F 87.8 °F 73.0 °F 74% 30.14 in 10.0 mi Calm Calm - N/A   Scattered Clouds
6:15 PM 73.4 °F - 73.4 °F 100% 30.16 in 1.2 mi South 4.6 mph 19.6 mph 0.25 in Rain Heavy Rain
6:35 PM 72.9 °F - 72.9 °F 100% 30.15 in 10.0 mi Calm Calm - 0.27 in Rain Rain
6:55 PM 72.9 °F - 72.9 °F 100% 30.16 in 5.0 mi Calm Calm - 0.27 in   Clear
7:15 PM 73.9 °F - 73.9 °F 100% 30.16 in 10.0 mi Calm Calm - N/A   Clear
7:35 PM 73.9 °F - 73.9 °F 100% 30.18 in 10.0 mi Calm Calm - N/A   Scattered Clouds
7:55 PM 73.4 °F - 73.4 °F 100% 30.16 in 7.0 mi Calm Calm - 0.06 in Rain Light Rain
8:15 PM 73.4 °F - 73.4 °F 100% 30.16 in 10.0 mi Calm Calm - N/A   Scattered Clouds
8:35 PM 72.7 °F - 72.7 °F 100% 30.17 in 4.0 mi Calm Calm - N/A   Clear
8:55 PM 72.5 °F - 72.5 °F 100% 30.18 in 10.0 mi Calm Calm - N/A   Scattered Clouds
9:15 PM 72.5 °F - 72.5 °F 100% 30.18 in 4.0 mi Calm Calm - N/A   Scattered Clouds
9:35 PM 72.5 °F - 72.5 °F 100% 30.19 in 5.0 mi Calm Calm - N/A   Scattered Clouds
9:55 PM 73.0 °F - 73.0 °F 100% 30.20 in 10.0 mi Calm Calm - N/A   Mostly Cloudy
10:15 PM 73.0 °F - 73.0 °F 100% 30.21 in 10.0 mi Calm Calm - N/A   Mostly Cloudy
10:35 PM 73.4 °F - 73.4 °F 100% 30.21 in 10.0 mi Calm Calm - N/A   Scattered Clouds
10:55 PM 72.9 °F - 72.9 °F 100% 30.21 in 7.0 mi Calm Calm - N/A   Scattered Clouds
11:15 PM 72.7 °F - 72.7 °F 100% 30.21 in 7.0 mi Calm Calm - N/A   Scattered Clouds
11:35 PM 72.7 °F - 72.7 °F 100% 30.20 in 5.0 mi Calm Calm - N/A   Scattered Clouds
11:55 PM 72.5 °F - 72.5 °F 100% 30.21 in 10.0 mi Calm Calm - N/A   Clear